Weather History for KANJ - October, 2012

Change the Weather History Date:

Friday, October 12, 2012

  Actual Average Record
Temperature  
Mean Temperature 36 °F 47 °F  
Max Temperature 44 °F 55 °F 81 °F (1938)
Min Temperature 28 °F 39 °F 22 °F (1936)
Degree Days  
Heating Degree Days 29 18  
Month to date heating degree days 222 192  
Since 1 July heating degree days 550 593  
Cooling Degree Days 0 0  
Month to date cooling degree days 0 0  
Year to date cooling degree days 402 195  
Moisture  
Dew Point 30 °F    
Average Humidity 77    
Maximum Humidity 85    
Minimum Humidity 69    
Precipitation  
Precipitation 0.13 in 0.12 in 1.30 in (1926)
Month to date precipitation 2.13 1.54  
Year to date precipitation 21.11 24.53  
Snow  
Snow 0.50 in 0.00 in 0.60 in (2009)
Month to date snowfall 5.0 0.2  
Since 1 July snowfall 5.0 0.2  
Snow Depth 0.00 in    
Sea Level Pressure  
Sea Level Pressure 30.36 in    
Wind  
Wind Speed 3 mph (SSW)    
Max Wind Speed 12 mph    
Max Gust Speed 15 mph    
Visibility 7 miles    
Events Fog , Rain , Snow    
T = Trace of Precipitation, MM = Missing Value Source: NWS Daily Summary

Daily Weather History Graph

Daily Weather History Graph

Search for Another Location

Airport or City:

Trip Planner

Search our weather history database for the weather conditions in past years. The results will help you decide how hot, cold, wet, or windy it might be!

Date:

Astronomy

Oct. 12, 2012 Rise Set
Actual Time 7:51 AM EDT 6:55 PM EDT
Civil Twilight 7:21 AM EDT 7:25 PM EDT
Nautical Twilight 6:46 AM EDT 8:00 PM EDT
Astronomical Twilight 6:11 AM EDT 8:35 PM EDT
Moon 4:23 AM EDT (10/12) 5:12 PM EDT (10/12)
Length of Visible Light 12h 04m
Length of Day
11h 03m
Waning Crescent, 11% of the Moon is Illuminated
Oct 12
Waning Crescent
Oct 15
New
Oct 21
First Quarter
Oct 29
Full
Nov 6
Last Quarter

Hourly Weather History & Observations

Time (EDT) Temp. Windchill Dew Point Humidity Pressure Visibility Wind Dir Wind Speed Gust Speed Precip Events Conditions
12:55 AM 35.1 °F 31.0 °F 28.9 °F 78% 30.18 in 10.0 mi NNW 4.6 mph - N/A   Clear
1:55 AM 34.0 °F 29.8 °F 28.0 °F 79% 30.22 in 10.0 mi NNW 4.6 mph - N/A   Clear
2:55 AM 34.0 °F 31.0 °F 27.0 °F 75% 30.25 in 10.0 mi North 3.5 mph - N/A   Scattered Clouds
3:55 AM 34.0 °F 28.8 °F 25.0 °F 70% 30.26 in 10.0 mi North 5.8 mph - N/A   Clear
4:55 AM 30.9 °F - 25.0 °F 79% 30.29 in 10.0 mi Calm Calm - N/A   Clear
5:55 AM 28.0 °F - 24.1 °F 85% 30.32 in 10.0 mi Calm Calm - N/A   Clear
6:55 AM 28.9 °F 23.9 °F 24.1 °F 82% 30.34 in 10.0 mi SSW 4.6 mph - N/A   Scattered Clouds
7:55 AM 30.9 °F 25.2 °F 28.9 °F 92% 30.37 in 8.0 mi SW 5.8 mph - 0.00 in Snow Light Snow
8:03 AM 30.9 °F 26.2 °F 28.9 °F 92% 30.36 in 2.0 mi SW 4.6 mph - 0.00 in Snow Light Snow
8:06 AM 30.9 °F 27.5 °F 28.9 °F 92% 30.36 in 0.8 mi WSW 3.5 mph - 0.00 in Snow Light Snow
8:21 AM 32.0 °F 28.7 °F 30.0 °F 92% 30.36 in 0.2 mi South 3.5 mph - 0.04 in Fog , Snow Heavy Snow
8:29 AM 30.9 °F 25.2 °F 28.9 °F 92% 30.36 in 0.8 mi South 5.8 mph - 0.04 in Snow Light Snow
8:33 AM 30.9 °F 25.2 °F 28.9 °F 92% 30.36 in 2.0 mi SSW 5.8 mph - 0.04 in Snow Light Snow
8:38 AM 30.9 °F 25.2 °F 28.9 °F 92% 30.36 in 6.0 mi SSW 5.8 mph - 0.04 in Snow Light Snow
8:55 AM 30.0 °F 25.2 °F 28.9 °F 96% 30.39 in 10.0 mi South 4.6 mph - 0.04 in   Partly Cloudy
9:34 AM 33.1 °F - 30.0 °F 89% 30.39 in 1.8 mi Calm Calm - 0.00 in Snow Light Snow
9:42 AM 33.1 °F 30.0 °F 30.0 °F 89% 30.39 in 2.5 mi SE 3.5 mph - 0.01 in Snow Light Snow
9:55 AM 35.1 °F - 30.9 °F 85% 30.41 in 9.0 mi Calm Calm - 0.01 in   Mostly Cloudy
10:41 AM 35.1 °F 32.2 °F 30.9 °F 85% 30.39 in 3.0 mi ESE 3.5 mph - 0.00 in Snow Light Snow
10:51 AM 35.6 °F - 30.2 °F 81% 30.40 in 1.8 mi Calm Calm - 0.00 in Snow Light Snow
10:55 AM 34.0 °F - 30.9 °F 89% 30.42 in 1.8 mi Calm Calm - 0.00 in Snow Light Snow
11:03 AM 34.0 °F - 32.0 °F 92% 30.40 in 2.0 mi Calm Calm - 0.00 in Snow Light Snow
11:11 AM 35.1 °F 31.0 °F 32.0 °F 89% 30.40 in 6.0 mi SSE 4.6 mph - 0.00 in Snow Light Snow
11:55 AM 39.0 °F 34.0 °F 33.1 °F 79% 30.41 in 10.0 mi SE 6.9 mph - 0.00 in   Overcast
12:32 PM 39.9 °F 37.8 °F 33.1 °F 77% 30.39 in 10.0 mi East 3.5 mph - 0.00 in Rain Light Rain
12:55 PM 37.0 °F 31.0 °F 33.1 °F 86% 30.42 in 2.5 mi North 8.1 mph - 0.02 in Rain Light Rain
1:05 PM 36.0 °F - 33.1 °F 89% 30.40 in 1.2 mi Calm Calm - 0.03 in Rain Rain
1:12 PM 36.0 °F 32.1 °F 33.1 °F 89% 30.39 in 3.0 mi East 4.6 mph - 0.05 in Rain Light Rain
1:26 PM 37.0 °F 32.4 °F 33.1 °F 86% 30.39 in 5.0 mi NNW 5.8 mph - 0.05 in Rain Rain
1:44 PM 39.0 °F 36.8 °F 34.0 °F 82% 30.38 in 10.0 mi NNW 3.5 mph - 0.06 in   Overcast
1:55 PM 39.9 °F - 34.0 °F 79% 30.40 in 10.0 mi Calm Calm - 0.06 in   Mostly Cloudy
2:37 PM 39.0 °F 34.0 °F 33.1 °F 79% 30.37 in 4.0 mi NNW 6.9 mph - 0.00 in Rain Light Rain
2:55 PM 39.9 °F 37.8 °F 35.1 °F 83% 30.39 in 10.0 mi North 3.5 mph - 0.00 in   Mostly Cloudy
3:55 PM 42.1 °F 40.2 °F 34.0 °F 73% 30.37 in 10.0 mi North 3.5 mph - 0.00 in   Overcast
4:55 PM 41.0 °F 38.0 °F 34.0 °F 76% 30.37 in 10.0 mi West 4.6 mph - N/A   Overcast
5:55 PM 42.1 °F 39.2 °F 33.1 °F 70% 30.37 in 10.0 mi West 4.6 mph - N/A   Overcast
6:55 PM 41.0 °F - 34.0 °F 76% 30.37 in 10.0 mi Calm Calm - N/A   Overcast
7:55 PM 39.0 °F 36.8 °F 33.1 °F 79% 30.36 in 10.0 mi South 3.5 mph - N/A   Clear
8:55 PM 37.0 °F 34.5 °F 32.0 °F 82% 30.35 in 10.0 mi South 3.5 mph - N/A   Clear
9:55 PM 37.0 °F 33.3 °F 32.0 °F 82% 30.34 in 10.0 mi South 4.6 mph - N/A   Clear
10:55 PM 37.0 °F 32.4 °F 28.0 °F 70% 30.33 in 10.0 mi SSW 5.8 mph - N/A   Clear
11:55 PM 36.0 °F 31.1 °F 28.0 °F 73% 30.32 in 10.0 mi South 5.8 mph - N/A   Clear